Weather History for Debrecen, Hungary

Change the Weather History Date:

Tuesday, September 4, 2012

  Actual Average Record
Temperature  
Mean Temperature 73 °F -  
Max Temperature 83 °F 71 °F - ()
Min Temperature 62 °F 50 °F - ()
Cooling Degree Days 8    
Growing Degree Days 23 (Base 50)    
Moisture  
Dew Point 60 °F    
Average Humidity 62    
Maximum Humidity 94    
Minimum Humidity 40    
Precipitation  
Precipitation 0.00 in 0.05 in - ()
Sea Level Pressure  
Sea Level Pressure 30.02 in    
Wind  
Wind Speed 7 mph ()    
Max Wind Speed 10 mph    
Max Gust Speed -    
Visibility 6.0 miles    
Events      
T = Trace of Precipitation, MM = Missing Value Source: Averaged Metar Reports

Daily Weather History Graph

Daily Weather History Graph

Search for Another Location

Airport:

Trip Planner

Search our weather history database for the weather conditions in past years. The results will help you decide how hot, cold, wet, or windy it might be!

Date:

Astronomy

Sep. 04, 2012 Rise Set
Actual Time 5:56 AM CEST 7:07 PM CEST
Civil Twilight 5:24 AM CEST 7:38 PM CEST
Nautical Twilight 4:46 AM CEST 8:16 PM CEST
Astronomical Twilight 4:06 AM CEST 8:57 PM CEST
Moon 8:27 PM CEST (9/4) 10:06 AM CEST (9/4)
Length of Visible Light 14h 14m
Length of Day
13h 10m
Waning Gibbous, 85% of the Moon is Illuminated
Sep 4
Waning Gibbous
Sep 8
Last Quarter
Sep 16
New
Sep 22
First Quarter
Sep 30
Full

Hourly Weather History & Observations

Time (CEST) Temp. Heat Index Dew Point Humidity Pressure Visibility Wind Dir Wind Speed Gust Speed Precip Events Conditions
2:00 AM 68 °F - 62 °F 75% 30.01 in - NE 8.9 mph - -  
4:45 AM 64.4 °F - 60.8 °F 88% 30.04 in - South 2.3 mph - N/A   Clear
5:45 AM 62.6 °F - 60.8 °F 94% 30.01 in 5.0 mi NNE 3.5 mph - N/A   Mostly Cloudy
6:15 AM 64.4 °F - 60.8 °F 88% 30.01 in 4.3 mi North 4.6 mph - N/A   Mostly Cloudy
6:45 AM 64.4 °F - 60.8 °F 88% 30.04 in 4.3 mi NE 6.9 mph - N/A   Mostly Cloudy
7:00 AM - - - N/A% - - NE 10.4 mph - N/A   Clear
7:15 AM 64.4 °F - 60.8 °F 88% 30.04 in 4.3 mi NNE 6.9 mph - N/A   Mostly Cloudy
7:45 AM 66.2 °F - 60.8 °F 83% 30.04 in 4.3 mi NE 9.2 mph - N/A   Mostly Cloudy
8:00 AM 67 °F - 61 °F 75% 30.02 in 4 mi NE 8.9 mph - -   Partly Cloudy
8:15 AM 69.8 °F - 60.8 °F 73% 30.04 in 5.0 mi NNE 9.2 mph - N/A   Mostly Cloudy
8:45 AM 71.6 °F - 60.8 °F 69% 30.04 in - ENE 6.9 mph - N/A   Clear
9:15 AM 71.6 °F - 60.8 °F 69% 30.04 in - NE 8.1 mph - N/A   Clear
9:45 AM 71.6 °F - 60.8 °F 69% 30.04 in - NNE 6.9 mph - N/A   Clear
10:00 AM - - - N/A% - - NE 9.2 mph - N/A   Clear
10:15 AM 71.6 °F - 60.8 °F 69% 30.04 in - ENE 8.1 mph - N/A   Clear
10:45 AM 73.4 °F - 60.8 °F 65% 30.04 in - NE 5.8 mph - N/A   Clear
11:15 AM 75.2 °F - 60.8 °F 61% 30.04 in - ENE 3.5 mph - N/A   Clear
11:45 AM 75.2 °F - 60.8 °F 61% 30.04 in - North 6.9 mph - N/A   Clear
12:15 PM 75.2 °F - 60.8 °F 61% 30.04 in - NE 6.9 mph - N/A   Clear
12:45 PM 77.0 °F - 60.8 °F 57% 30.04 in - NNE 8.1 mph - N/A   Clear
1:00 PM - - - N/A% - - NE 6.9 mph - N/A   Clear
1:15 PM 80.6 °F 81.8 °F 62.6 °F 54% 30.01 in - NNE 10.4 mph - N/A   Clear
1:45 PM 82.4 °F 82.9 °F 60.8 °F 48% 30.01 in - NE 8.1 mph - N/A   Clear
2:00 PM 82 °F - 62 °F 40% 30.00 in 12 mi NE 8.9 mph - -   Partly Cloudy
2:15 PM 82.4 °F 82.9 °F 60.8 °F 48% 30.01 in - NE 8.1 mph - N/A   Clear
2:45 PM 82.4 °F 82.5 °F 59.0 °F 45% 30.01 in - North 8.1 mph - N/A   Clear
3:15 PM 84.2 °F 83.8 °F 59.0 °F 42% 30.01 in - NNE 9.2 mph - N/A   Clear
3:45 PM 84.2 °F 83.8 °F 59.0 °F 42% 30.01 in - NNE 9.2 mph - N/A   Clear
4:00 PM - - - N/A% - - NE 5.8 mph - N/A   Clear
4:15 PM 82.4 °F 82.5 °F 59.0 °F 45% 30.01 in - North 9.2 mph - N/A   Clear
4:45 PM 82.4 °F 82.5 °F 59.0 °F 45% 30.01 in - NNE 10.4 mph - N/A   Clear
5:15 PM 80.6 °F 81.1 °F 59.0 °F 48% 30.01 in - NNE 10.4 mph - N/A   Clear
5:45 PM 80.6 °F 81.1 °F 59.0 °F 48% 29.98 in - NNE 8.1 mph - N/A   Clear
6:15 PM 80.6 °F 81.5 °F 60.8 °F 51% 29.98 in - NNE 5.8 mph - N/A   Clear
6:45 PM 78.8 °F - 59.0 °F 51% 29.98 in - NNE 6.9 mph - N/A   Clear
7:15 PM 77.0 °F - 59.0 °F 54% 29.98 in - NNE 5.8 mph - N/A   Clear
7:45 PM 77.0 °F - 60.8 °F 57% 29.98 in - North 5.8 mph - N/A   Clear
8:00 PM 77 °F - 60 °F 46% 29.97 in 11 mi North 6.7 mph - -   Partly Cloudy
8:00 PM - - - N/A% - - North - - N/A   Unknown